Tracking 18852 objects as of 24-Nov-2017
HD Live streaming from Space Station
objects crossing your sky now

COSMOS 2189

Track COSMOS 2189 now!
10-day predictions
COSMOS 2189 is classified as:


NORAD ID: 21978
Int'l Code: 1992-030C
Perigee: 1,424.0 km
Apogee: 1,486.1 km
Inclination: 74.0 °
Period: 114.8 minutes
Semi major axis: 7826 km
RCS: 0.6942 m2 (medium)
Launch date: June 3, 1992
Source: Commonwealth of Independent States (former USSR) (CIS)
Launch site: PLESETSK MISSILE AND SPACE COMPLEX (PKMTR)
aabbcc
Your satellite tracking list
Your tracking list is empty




NASA's NSSDC Master Catalog

Two Line Element Set (TLE):
1 21978U 92030C   17327.59678885 -.00000005 +00000-0 +70370-4 0  9994
2 21978 074.0059 036.9768 0039645 087.4188 017.9355 12.53978382166074
Source of the keplerian elements: AFSPC